Volver al catálogo

STARLINK-31856

ActivoComunicacionesVLEO
NORAD 59960·PAYLOAD·🇺🇸 United States

Lanzado Jun 5, 2024 desde Cape Canaveral Space Force Station

Loading…

Próximos Pases (próximas 24 horas)

TLE

ActualizadoSource: CelesTrak SupGP

Época: Sep 15, 2026, 02:21 UTC

1 59960C 24107R   26258.09840278 -.00017794  00000+0 -52558-3 0  2589
2 59960  53.1577 262.6252 0001088  83.4051 140.2093 15.34407673    12

Sigue STARLINK-31856 en tiempo real con AllMySat

Download on the App Store